www.pogodaiklimat.ru

Погода и климат >> Архив погоды >> Россия >> Краснодарский край >> Сочи


АРХИВ ПОГОДЫ в Сочи

Время (UTC), дата Ветер
(напр.,м/с)
 
Видим.   Явления Облачность Т
(С)
Тd
(С)
f
(%)
Тe
(С)
Тes
(С)
Комфортность P
(гПа)
Po
(гПа)
Тmin
(С)
Tmax
(С)
R
(мм)
R24
(мм)
S
(см)
18 18.03 В 1 20 км ясно +5.9 +5.9 100 +5 +5 по сезону 1023.2 1006.9
21 18.03 В 2 20 км 8/8 1000 м
[Sc]
+5.4 +5.0 97 +3 +3 прохладно 1023.7 1007.4
00 19.03 В 2 20 км 8/8 1000 м
[Sc]
+5.5 +4.3 92 +3 +3 прохладно 1024.1 1007.8
03 19.03 В 3 20 км ясно +4.1 +3.1 93 0 0 холодно 1024.4 1008.0 +4.0
06 19.03 В 1 20 км ясно +9.4 +3.2 65 +9 +15 по сезону 1024.4 1008.3
09 19.03 ЮЗ 3 20 км 3/3 1000 м
[Sc]
+9.6 +5.2 74 +7 +14 по сезону 1024.3 1008.2
12 19.03 З 2 20 км ясно +11.0 +2.8 57 +10 +17 по сезону 1022.9 1006.9
15 19.03 СЗ 2 20 км 1/0
[Ci fib]
+9.6 +3.6 66 +8 +8 по сезону 1021.9 1005.8 +12.1
18 19.03 С 1 20 км ясно +7.2 +2.7 73 +6 +6 по сезону 1021.8 1005.6
21 19.03 СВ 1 20 км ясно +7.1 +2.2 71 +6 +6 по сезону 1021.3 1005.1
00 20.03 В 2 20 км ясно +7.4 +1.9 68 +6 +6 по сезону 1020.5 1004.3
03 20.03 СВ 1 20 км ясно +7.6 +1.2 64 +7 +7 по сезону 1020.0 1003.8 +6.3
06 20.03 СЗ 1 20 км ясно +10.3 +1.4 54 +10 +16 тепло 1020.2 1004.2
09 20.03 З 3 20 км ясно +12.7 +6.1 64 +11 +21 опасность
простуды
1020.2 1004.3
12 20.03 СЗ 2 20 км ясно +12.4 +6.0 65 +12 +19 тепло 1020.1 1004.2
15 20.03 СЗ 2 20 км 4/4 600 м
[Sc]
+8.6 +7.5 93 +7 +7 по сезону 1020.8 1004.7 +13.8
18 20.03 З 1 10 км 10/10 300 м
[Sc]
+7.4 +7.4 100 +6 +6 по сезону 1022.2 1006.0
21 20.03 В 2 8000 м дымка 10/10 300 м
[St]
+6.9 +6.9 100 +4 +4 по сезону 1023.1 1006.9
00 21.03 В 2 7000 м дымка 10/10 300 м
[St]
+6.8 +6.8 100 +4 +4 по сезону 1024.0 1007.7
03 21.03 В 2 14 км слаб. морось 10/10 300 м
[St]
+6.9 +6.2 95 +5 +5 по сезону 1024.6 1008.3 +6.6 0.0
06 21.03 В 2 20 км {морось} 10/9 1000 м
[Sc Ac As]
+7.9 +5.4 84 +6 +6 по сезону 1026.0 1009.8
09 21.03 В 3 20 км 10/8 1000 м
[Sc Ac As Ci fib]
+9.0 +4.2 72 +7 +8 по сезону 1026.6 1010.4
12 21.03 ЮВ 2 20 км 9/9 1000 м
[Sc]
+10.3 +3.6 63 +9 +10 по сезону 1026.2 1010.1
15 21.03 ЮВ 2 20 км 6/6 1000 м
[Sc]
+8.9 +4.5 74 +7 +7 по сезону 1026.1 1009.9 +11.2
18 21.03 В 3 20 км 8/8 1000 м
[Sc]
+7.8 +4.4 79 +5 +5 по сезону 1027.0 1010.7
21 21.03 В 1 20 км 9/9 1000 м
[Sc]
+7.3 +4.6 83 +6 +6 по сезону 1026.7 1010.4
00 22.03 В 2 20 км 10/10 1000 м
[Sc]
+7.6 +3.8 77 +6 +6 по сезону 1026.1 1009.8
03 22.03 В 4 20 км слаб. ливневой дождь 10/10 600 м
[Cb cap]
+6.9 +6.0 94 +3 +3 прохладно 1025.2 1008.9 +6.7 0.7
06 22.03 ЮВ 3 20 км слаб. ливневой дождь 10/10 300 м
[Cb cap]
+6.6 +6.6 100 +3 +3 холодно 1026.2 1009.9 +6.3
09 22.03 З 3 20 км {ливн. осадки} 6/6 1000 м
[Cu Sc]
+9.9 +5.5 74 +8 +12 по сезону 1026.1 1010.0
12 22.03 З 4 20 км {ливн. осадки} 6/3 1000 м
[Cu med, cong Cc]
+10.7 +5.2 69 +8 +12 по сезону 1025.4 1009.3
15 22.03 СЗ 2 20 км 10/3 1000 м
[Cu med, cong As trans Cs]
+8.2 +4.4 77 +6 +6 прохладно 1025.0 1008.8 +11.2 2
18 22.03 штиль 0 20 км 10/3 600 м
[Cu hum Ac As]
+7.4 +4.2 80 +7 +7 по сезону 1025.2 1009.0
21 22.03 В 1 20 км 10/0
[Ci sp]
+6.7 +4.4 85 +6 +6 по сезону 1023.9 1007.6
00 23.03 В 3 20 км слаб. ливневой дождь 10/10 1000 м
[Cb cap]
+6.9 +4.2 83 +4 +4 прохладно 1022.2 1006.0
03 23.03 Ю 4 20 км слаб. ливневой дождь 10/10 600 м
[Cb cap]
+6.4 +0.3 65 +3 +3 прохладно 1019.9 1003.7 +6.3 0.0
06 23.03 В 5 16 км слаб. ливневой дождь 10/10 600 м
[Cb cap]
+4.2 +4.2 100 -1 -1 очень
холодно
1018.7 1002.4 +4.0
09 23.03 В 5 9000 м слаб. ливневой дождь 10/10 600 м
[Cb cap]
+4.5 +4.1 97 -1 -1 очень
холодно
1016.0 999.7
12 23.03 ЮВ 4
{12}
4000 м ливневой дождь 10/10 600 м
[Cb cap]
+4.1 +4.1 100 -1 -1 очень
холодно
1015.1 998.8
15 23.03 В 1 12 км слаб. ливневой дождь 10/10 600 м
[Cb cap]
+3.8 +3.8 100 +2 +2 холодно 1015.8 999.5 +6.6 27
18 23.03 С 1 20 км {ливн. осадки} 1/1 1000 м
[Sc]
+2.4 +2.4 100 0 0 очень
холодно
1016.8 1000.4
21 23.03 СВ 1 20 км 3/0
[Ci sp]
+1.9 0.0 87 0 0 холодно 1018.0 1001.5
00 24.03 СВ 1 20 км 3/3 1000 м
[Sc]
+0.9 -1.2 86 -1 -1 очень
холодно
1018.1 1001.6
03 24.03 В 2 20 км слаб. ливневой дождь 6/6 600 м
[Cb cap]
+1.9 -1.4 79 -1 -1 очень
холодно
1018.6 1002.1 +0.4 0.3
06 24.03 В 1 20 км {ливн. осадки} 3/1 1000 м
[Cu med, cong Ac trans Ci fib]
+6.2 -0.3 63 +6 +11 прохладно 1019.1 1002.9
09 24.03 З 4 20 км 8/3 1000 м
[Cu med, cong Ac trans Ci fib]
+7.5 +0.2 60 +4 +8 холодно 1018.9 1002.7
12 24.03 З 4 20 км 6/3 1000 м
[Cu med, cong Ac trans Ci fib]
+7.9 +2.2 67 +5 +8 холодно 1018.6 1002.5
15 24.03 СЗ 2 20 км 8/5 1000 м
[Cu Sc Ac trans Ci fib]
+5.3 +1.0 74 +3 +3 холодно 1019.7 1003.4 +8.8
18 24.03 СВ 1 20 км 1/0
[Ci fib]
+3.3 +0.4 81 +2 +2 холодно 1020.6 1004.2
21 24.03 В 1 20 км ясно +1.7 -0.4 86 -0 -0 холодно 1020.8 1004.3
00 25.03 СВ 1 20 км ясно +2.0 -1.3 79 0 0 холодно 1020.1 1003.6
03 25.03 В 1 20 км ясно +1.4 -2.2 77 -0 -0 очень
холодно
1018.7 1002.2 +1.3
06 25.03 СЗ 1 20 км ясно +5.9 -2.0 57 +5 +12 прохладно 1018.2 1002.0
09 25.03 З 3 20 км 1/1 1000 м
[Cu med, cong]
+8.5 +1.4 61 +6 +16 опасность
простуды
1018.8 1002.7
12 25.03 СЗ 4 20 км ясно +8.4 +0.4 57 +6 +11 прохладно 1016.2 1000.1

 

Местоположение метеостанции Сочи (Краснодарский край, Россия): широта 43.58 долгота 39.77 высота над уровнем моря 132 м.

В архиве по умолчанию представлена погода в Сочи за последнюю неделю. Архивные данные за месяц целиком и за предыдущие месяцы, начиная с января 2011 года, Вы можете получить, выбрав интересующий диапазон дат из раскрывающегося списка и нажав кнопку "Ввод!".


*Определитесь, кто Вы:
робот инопланетянин человек

Внимание! Время в таблицах - всемирное. Для получения местного времени необходимо прибавить поправку, которая равна 3 ч.

Смотрите также архив погоды в соседних городах и на ближайших метеорологических станциях:

Погода в Сочи аэропорт (Адлере) (Краснодарский край, Россия) (20 км)
Погода в Кепше (Краснодарский край, Россия) (23 км)
Погода в Имеретинке (Краснодарский край, Россия) (25 км)
Погода в Солох Ауле (Краснодарский край, Россия) (27 км)
Погода в Кичмае (Краснодарский край, Россия) (35 км)
Погода в Красной Поляне (Краснодарский край, Россия) (36 км)
Погода в Горная Карусель 1500 (Краснодарский край, Россия) (43 км)
Погода в Горная Карусель 1000 (Краснодарский край, Россия) (43 км)
Погода на Кордоне Лаура (Краснодарский край, Россия) (45 км)
Погода в Лазаревском (Краснодарский край, Россия) (50 км)

Пояснения к столбцам:

Ветер - указаны скорость ветра в м/с - средняя за 10 мин, порывы в срок и между сроками (в фигурных скобках) и направление, откуда дует ветер: С - северный, СВ - северо-восточный, В - восточный, ЮВ - юго-восточный, Ю - южный, ЮЗ - юго-западный, З - западный, СЗ - северо-западный.
Видимость - горизонтальная дальность видимости в метрах или километрах. При видимости от 1 до 10 км при отсутствии осадков обычно наблюдается дымка, при ухудшении видимости до 1 км и менее - туман. В сухую погоду видимость может ухудшаться дымом, пылью или мглою.
Явления - указаны атмосферные явления, наблюдавшиеся в срок или в последний час перед сроком; фигурными скобками обозначены явления, наблюдавшиеся между сроками (за 1-3 часа до срока); квадратными скобками обозначены град или гололедные отложения с указанием их диаметра в мм.
Облачность - указаны через наклонную черту общая и нижняя облачность в баллах и высота нижней границы облаков в метрах; квадратными скобками обозначены формы облаков: Ci - перистые, Cs - перисто-слоистые, Cc - перисто-кучевые, Ac - высококучевые, As - высокослоистые, Sc - слоисто-кучевые, Ns - слоисто-дождевые, Cu - кучевые, Cb - кучево-дождевые. Подробнее классификацию облаков см. в Атласе облаков (PDF).
T - Температура воздуха - температура, измеренная на высоте 2 м над землей.
Td - Температура точки росы - температура, при понижении до которой содержащийся в воздухе водяной пар достигнет насыщения.
f - Относительная влажность воздуха - влажноcть воздуха, измеренная на высоте 2 м над землей.
Te - Эффективная температура - температура, которую ощущает одетый по сезону человек в тени. Характеристика душности погоды. При расчете учитывается влияние влажности воздуха и скорости ветра на теплоощущения человека.
Tes - Эффективная температура на солнце - температура, которую ощущает человек, с поправкой на солнечный нагрев. Характеристика знойности погоды. Зависит от высоты солнца над горизонтом, облачности и скорости ветра. Ночью, в пасмурную погоду, а также при ветре 12 м/с и более поправка равна нулю.
P - Атмосферное давление - приведенное к уровню моря атмосферное давление.
Po - Атмосферное давление - измеренное на уровне метеостанции атмосферное давление.
Tmin - Минимальная температура - минимум температуры воздуха на высоте 2 м над землей.
Tmax - Максимальная температура - максимум температуры воздуха на высоте 2 м над землей.
R - Количество осадков - Количество выпавших осадков за период времени, мм. При наведении курсора мыши на число - период времени, за который выпало указанное количество осадков.
R24 - Количество осадков - Количество выпавших осадков за 24 часа, мм.
S - Снежный покров - Высота снежного покрова, см. При наведении курсора мыши на число - состояние снежного покрова и степень покрытия местности в баллах.